Location: Cazavet
(43.0017°N, 1.0431°E)
Time: 23:35:43
(UTC+00:00)

Cosmos 1862 Rocket - Pass Details

Date: 18 January 2026
Orbit: 596 x 627 km, 82.5° (Epoch: 13 February)

Event Time Altitude Azimuth Distance (km) Brightness Sun altitude
Rises 06:00:29 0° 350° (N) 2,873 6.7 -14.8°
Reaches altitude 10° 06:02:43 10° 350° (N) 1,960 5.9 -14.5°
Maximum altitude 06:07:03 82° 265° (W) 612 3.4 -13.7°
Drops below altitude 10° 06:11:19 10° 176° (S) 1,930 6.4 -12.9°
Sets 06:13:30 0° 176° (S) 2,825 7.2 -12.6°
